Flag for U.S.A. Weather past 2 weeks in Anderson, South Carolina, U.S.A.

Now
55 °F

Fog.


Feels Like: 54 °F
Forecast: 48 / 57 °F
Wind: 6 mph from Southwest

Location: Anderson County Airport

Current Time: Dec 28, 2014 at 3:17:07 PM

Latest Report: Dec 28, 2014 at 1:56 PM


Visibility: 2 mi

Pressure: 30.02 "Hg

Humidity: 96%

Dew point: 54 °F

Location of AndersonLocation

Historic Weather in Anderson — Graph

°F

Anderson temperature yesterday

Maximum temperature yesterday: 62 °F (at 2:56 PM)
Minimum temperature yesterday: 31 °F (at 5:56 AM)
Average temperature yesterday: 48 °F

Past Weeks' High & Low Weather Summary

 TemperatureHumidityPressure
High66 °F (Dec 14, 2:56 PM)100% (Dec 23, 10:56 PM)30.36 "Hg (Dec 23, 10:56 PM)
Low28 °F (Dec 14, 7:56 AM)15% (Dec 13, 2:56 PM)29.66 "Hg (Dec 24, 3:56 PM)
Average46 °F76%30.08 "Hg
* Reported Dec 13 1:56 PM — Dec 28 1:56 PM, Anderson, Weather by CustomWeather, © 2014

Note: Actual official high and low records may vary slightly from our data, if they occured in-between our weather recording intervals... More about our weather records

Advertising

Anderson weather history for previous 24 hours

 ConditionsComfort  
Time TempWeatherWind HumidityBarometerVisibility
1:56 PM
Dec 28
55 °FFog.6 mph96%30.02 "Hg2 mi
12:56 PM54 °FFog.5 mph97%30.04 "Hg3 mi
11:56 AM54 °FLight rain. Fog.6 mph97%30.07 "Hg4 mi
10:56 AM53 °FFog.No wind96%30.09 "Hg3 mi
9:56 AM53 °FLight rain. Fog.No wind96%30.11 "Hg4 mi
8:56 AM51 °FLight rain. Fog.No wind96%30.11 "Hg4 mi
7:56 AM50 °FLight rain. Fog.3 mph96%30.11 "Hg4 mi
6:56 AM50 °FLow clouds.5 mph96%30.09 "Hg7 mi
6:03 AM50 °FLight rain. Fog.5 mph96%30.10 "Hg5 mi
5:56 AM50 °FRain. Fog.No wind96%30.09 "Hg5 mi
4:56 AM49 °FRain. Fog.8 mph97%30.10 "Hg5 mi
3:56 AM49 °FLight rain. Mostly cloudy.5 mph97%30.12 "Hg9 mi
2:56 AM50 °FLight rain. Overcast.3 mph89%30.14 "Hg10 mi
1:56 AM50 °FLight rain. Overcast.5 mph83%30.16 "Hg10 mi
12:56 AM51 °FLight rain. Partly cloudy.No wind77%30.14 "Hg10 mi
11:56 PM
Dec 27
50 °FPassing clouds.No wind77%30.21 "Hg10 mi
10:56 PM52 °FClear.No wind66%30.20 "Hg10 mi
9:56 PM53 °FClear.No wind64%30.22 "Hg10 mi
8:56 PM53 °FPassing clouds.No wind64%30.22 "Hg10 mi
7:56 PM55 °FPassing clouds.No wind57%30.24 "Hg10 mi
6:56 PM55 °FPassing clouds.5 mph59%30.25 "Hg10 mi
5:56 PM56 °FOvercast.No wind53%30.23 "Hg10 mi
4:56 PM61 °FOvercast.No wind38%30.21 "Hg10 mi
3:56 PM62 °FPartly sunny.6 mph34%30.21 "Hg10 mi
Weather by CustomWeather, © 2014

See weather overviewHow to use our weather pages